Total_Precipitation_Accumulation
1.21 1.18 1.19 1.25 1.29 1.38 1.47 1.51 1.45 1.46 1.45 1.45 1.45 1.47 1.46 1.50 1.57 1.66 1.68 1.70 1.74 1.70 1.68 1.72 1.73 1.71 1.73 1.76 1.87 1.96 2.02 2.11 2.10 1.67 1.43 1.41 1.54 1.64 1.69 1.65 1.63 1.67 1.67
1.12 1.07 1.06 1.10 1.15 1.20 1.24 1.32 1.33 1.33 1.35 1.37 1.34 1.33 1.31 1.30 1.35 1.43 1.48 1.53 1.57 1.60 1.61 1.65 1.68 1.70 1.75 1.77 1.88 1.95 1.95 1.94 1.97 1.85 1.58 1.44 1.41 1.42 1.47 1.51 1.50 1.48 1.46
0.89 0.86 0.86 0.87 0.93 1.02 1.06 1.08 1.13 1.17 1.22 1.27 1.29 1.25 1.24 1.23 1.27 1.31 1.31 1.35 1.39 1.42 1.47 1.53 1.53 1.60 1.67 1.68 1.76 1.84 1.84 1.83 1.82 1.75 1.53 1.33 1.28 1.29 1.40 1.47 1.46 1.40 1.31
0.77 0.76 0.77 0.77 0.79 0.84 0.89 0.89 0.91 0.96 1.04 1.12 1.21 1.19 1.14 1.16 1.22 1.26 1.31 1.32 1.30 1.30 1.32 1.39 1.45 1.50 1.54 1.58 1.68 1.73 1.75 1.79 1.81 1.79 1.66 1.45 1.29 1.24 1.30 1.38 1.45 1.39 1.29
0.81 0.81 0.78 0.75 0.75 0.78 0.82 0.83 0.81 0.81 0.82 0.87 0.97 1.05 1.08 1.09 1.15 1.20 1.26 1.31 1.31 1.30 1.30 1.34 1.43 1.61 1.67 1.64 1.66 1.65 1.68 1.76 1.80 1.79 1.67 1.51 1.33 1.24 1.27 1.21 1.26 1.34 1.36
0.90 0.85 0.81 0.76 0.73 0.71 0.71 0.72 0.72 0.73 0.72 0.76 0.84 0.89 0.96 1.03 1.30 1.36 1.30 1.28 1.33 1.34 1.34 1.30 1.34 1.49 1.51 1.54 1.56 1.57 1.65 1.77 1.83 1.76 1.59 1.37 1.15 1.00 1.02 1.13 1.23 1.39 1.47
0.92 0.86 0.79 0.75 0.72 0.71 0.68 0.67 0.69 0.72 0.74 0.78 0.82 0.88 0.95 1.11 1.37 1.41 1.49 1.38 1.34 1.31 1.29 1.26 1.21 1.17 1.25 1.13 1.23 1.38 1.45 1.50 1.49 1.46 1.44 1.19 1.04 0.94 1.05 1.23 1.27 1.28 1.18
0.96 0.94 0.90 0.87 0.88 0.91 0.90 0.91 0.90 0.87 0.90 0.96 1.00 1.04 1.10 1.22 1.35 1.33 1.39 1.25 1.22 1.18 1.11 1.09 1.05 0.99 0.99 1.04 1.09 1.18 1.12 1.10 1.11 1.06 1.04 0.97 0.96 1.02 1.16 1.33 1.42 1.47 1.32
1.14 1.15 1.15 1.16 1.19 1.21 1.22 1.22 1.21 1.21 1.21 1.19 1.15 1.11 1.10 1.14 1.19 1.19 1.21 1.10 1.09 1.03 0.95 0.94 0.95 0.91 1.04 1.20 1.19 1.13 1.02 1.00 1.09 1.14 1.16 1.16 1.25 1.35 1.43 1.60 1.75 1.88 1.69
1.25 1.28 1.30 1.37 1.42 1.37 1.33 1.29 1.21 1.18 1.19 1.18 1.15 1.11 1.04 1.00 1.03 1.02 1.04 0.97 0.95 0.87 0.82 0.81 0.90 0.92 1.11 1.27 1.22 1.16 1.07 0.89 0.91 1.02 1.07 1.07 1.08 1.16 1.37 1.41 1.52 1.85 1.70
1.16 1.19 1.22 1.19 1.20 1.17 1.13 1.08 1.03 0.99 0.94 0.91 0.88 0.83 0.79 0.81 0.88 0.91 0.96 0.95 0.98 0.94 0.87 0.85 0.86 1.00 1.13 1.23 1.25 1.15 1.10 1.06 1.01 1.05 1.08 1.06 1.07 1.10 1.14 1.17 1.24 1.54 1.76
0.89 0.89 0.89 0.84 0.78 0.77 0.80 0.81 0.79 0.78 0.75 0.71 0.67 0.65 0.62 0.65 0.73 0.79 0.90 1.00 1.05 1.04 0.94 0.88 0.95 1.13 1.22 1.26 1.22 1.17 1.22 1.26 1.16 1.20 1.23 1.16 1.10 1.07 1.03 1.04 1.11 1.16 1.25
0.50 0.54 0.55 0.54 0.52 0.51 0.55 0.59 0.61 0.63 0.64 0.63 0.62 0.62 0.60 0.57 0.62 0.73 0.80 0.93 1.03 0.99 0.93 1.00 1.09 1.16 1.19 1.18 1.20 1.20 1.16 1.10 1.13 1.21 1.17 1.05 0.96 0.96 1.02 1.11 1.19 1.21 1.21
0.32 0.36 0.42 0.46 0.48 0.47 0.49 0.53 0.57 0.60 0.63 0.65 0.65 0.64 0.61 0.57 0.60 0.68 0.78 0.87 0.98 1.00 0.99 1.03 1.07 1.07 1.05 1.06 1.11 1.14 1.11 1.09 1.15 1.16 1.08 1.03 1.05 1.13 1.17 1.19 1.30 1.34 1.44
0.26 0.29 0.34 0.41 0.48 0.50 0.50 0.53 0.59 0.62 0.74 0.89 0.89 0.82 0.83 0.80 0.77 0.94 1.09 1.09 1.12 1.17 1.20 1.14 1.04 0.97 0.97 0.99 0.98 1.01 1.08 1.13 1.18 1.12 1.15 1.19 1.20 1.21 1.21 1.18 1.27 1.35 1.43
0.30 0.31 0.36 0.40 0.45 0.51 0.54 0.55 0.59 0.63 0.70 0.77 0.84 0.89 0.86 0.89 0.95 1.02 1.06 1.12 1.18 1.27 1.33 1.23 1.04 0.94 0.92 0.93 0.96 1.00 1.04 1.08 1.10 1.15 1.21 1.23 1.27 1.26 1.24 1.21 1.28 1.37 1.36
0.39 0.41 0.43 0.45 0.47 0.50 0.53 0.57 0.58 0.58 0.62 0.66 0.71 0.76 0.79 0.84 0.92 0.96 1.01 1.06 1.10 1.17 1.15 1.00 0.92 0.90 0.91 0.93 0.96 0.99 1.00 1.00 1.08 1.20 1.26 1.28 1.31 1.33 1.32 1.30 1.31 1.37 1.33
0.45 0.49 0.52 0.51 0.54 0.56 0.57 0.59 0.62 0.64 0.62 0.59 0.62 0.72 0.79 0.85 0.92 0.97 1.02 1.06 1.05 0.98 0.88 0.84 0.85 0.88 0.94 1.01 1.06 1.07 1.06 1.06 1.12 1.19 1.23 1.28 1.37 1.45 1.42 1.31 1.28 1.33 1.37
0.47 0.49 0.53 0.56 0.59 0.61 0.61 0.62 0.63 0.63 0.61 0.57 0.56 0.62 0.74 0.85 0.93 0.99 1.04 1.04 0.98 0.90 0.83 0.83 0.89 0.96 1.02 1.07 1.12 1.17 1.20 1.20 1.17 1.23 1.27 1.28 1.36 1.52 1.47 1.30 1.29 1.29 1.39
0.49 0.56 0.59 0.59 0.60 0.61 0.63 0.63 0.63 0.62 0.60 0.57 0.56 0.59 0.72 0.89 0.89 0.86 0.89 0.93 0.97 0.97 0.95 0.96 0.96 1.00 1.08 1.14 1.18 1.22 1.25 1.23 1.23 1.28 1.29 1.31 1.35 1.48 1.51 1.40 1.39 1.44 1.37
0.50 0.54 0.61 0.59 0.57 0.60 0.66 0.68 0.67 0.66 0.64 0.59 0.55 0.62 0.91 1.08 0.96 0.85 0.86 0.89 0.96 1.01 1.04 1.07 1.06 1.08 1.12 1.19 1.23 1.24 1.23 1.19 1.19 1.27 1.29 1.31 1.36 1.44 1.39 1.42 1.43 1.46 1.49
0.52 0.54 0.57 0.60 0.62 0.66 0.73 0.74 0.74 0.73 0.70 0.67 0.63 0.67 0.83 0.88 0.84 0.83 0.84 0.86 0.90 0.97 1.05 1.15 1.16 1.11 1.18 1.31 1.38 1.40 1.29 1.17 1.14 1.24 1.28 1.25 1.29 1.34 1.39 1.51 1.54 1.55 1.52
0.56 0.58 0.59 0.61 0.65 0.72 0.74 0.70 0.73 0.75 0.75 0.74 0.74 0.74 0.75 0.78 0.79 0.80 0.82 0.84 0.89 0.95 0.99 1.08 1.14 1.08 1.06 1.19 1.32 1.53 1.59 1.39 1.26 1.36 1.55 1.53 1.46 1.48 1.55 1.60 1.53 1.49 1.39
0.58 0.59 0.62 0.63 0.65 0.67 0.68 0.67 0.67 0.70 0.73 0.75 0.75 0.75 0.75 0.77 0.79 0.81 0.83 0.87 0.91 0.92 0.94 1.02 1.06 1.04 1.01 1.09 1.17 1.25 1.38 1.52 1.73 1.87 1.97 2.09 1.86 1.60 1.57 1.53 1.40 1.33 1.31
0.53 0.57 0.59 0.61 0.64 0.65 0.65 0.64 0.64 0.67 0.69 0.70 0.71 0.71 0.71 0.74 0.76 0.79 0.82 0.84 0.85 0.85 0.83 0.88 0.97 1.01 1.00 1.01 1.06 1.11 1.20 1.42 1.79 2.17 2.24 2.12 1.79 1.53 1.53 1.52 1.40 1.33 1.32
0.50 0.54 0.57 0.60 0.62 0.63 0.63 0.63 0.62 0.63 0.65 0.65 0.67 0.69 0.70 0.72 0.73 0.75 0.77 0.80 0.80 0.77 0.75 0.76 0.81 0.89 0.92 0.93 0.91 0.98 1.15 1.31 1.41 1.57 2.00 2.14 1.85 1.54 1.50 1.61 1.49 1.43 1.39